EW2835 Weather Reports


Display with metric or nautical units.
time (UTC)temp
F
wind
direction
speed
MPH
gust
MPH
rain 1hr
in
rain 24hr
in
rain mn
in
humidity
%
barometer
mb
20260509071533 53 58 0.0 3.0 0.00 0.00 0.00 75 1021.5
20260509070020 52 34 0.0 2.0 0.00 0.00 0.00 77 1021.5
20260509064517 50 33 0.0 2.0 0.00 0.00 0.00 84 1021.4
20260509063020 48 110 0.0 0.0 0.00 0.00 0.00 93 1021.4
20260509061508 47 110 0.0 0.0 0.00 0.00 0.00 94 1021.4
20260509060006 46 110 0.0 0.0 0.00 0.00 0.00 94 1021.4
20260509054503 45 110 0.0 0.0 0.00 0.00 0.00 94 1021.4
20260509053134 44 57 0.0 0.0 0.00 0.00 0.00 93 1021.4
20260509051558 43 57 0.0 0.0 0.00 0.00 0.00 92 1021.4
20260509050056 43 57 0.0 0.0 0.00 0.00 0.00 92 1021.1
20260509044632 42 57 0.0 0.0 0.00 0.00 0.00 91 1021.1
20260509043132 42 57 0.0 0.0 0.00 0.00 0.00 90 1021.1
20260509041550 42 57 0.0 0.0 0.00 0.00 0.00 90 1021.0
20260509040048 42 57 0.0 0.0 0.00 0.00 0.00 89 1021.0
20260509034539 43 57 0.0 0.0 0.00 0.00 0.00 87 1021.0
20260509033031 43 57 0.0 0.0 0.00 0.00 0.00 86 1021.0
20260509031544 44 57 0.0 0.0 0.00 0.00 0.00 85 1020.9
20260509030041 46 57 0.0 0.0 0.00 0.00 0.00 84 1021.0
20260509024521 46 57 0.0 1.0 0.00 0.00 0.00 83 1021.0
20260509023022 47 57 1.0 2.0 0.00 0.00 0.00 81 1020.9
20260509021516 48 76 1.0 2.0 0.00 0.00 0.00 81 1020.9
20260509020014 48 76 0.0 2.0 0.00 0.00 0.00 81 1021.0
20260509014513 48 76 0.0 1.0 0.00 0.00 0.00 80 1021.0
20260509013013 48 76 0.0 2.0 0.00 0.00 0.00 79 1021.0
20260509011511 48 68 1.0 3.0 0.00 0.00 0.00 79 1020.9
20260509010009 48 15 0.0 2.0 0.00 0.00 0.00 80 1020.9
20260509004507 48 12 0.0 2.0 0.00 0.00 0.00 81 1020.9
20260509003009 48 12 0.0 1.0 0.00 0.00 0.00 82 1021.0
20260509001503 49 12 0.0 2.0 0.00 0.00 0.00 82 1021.1
20260508234557 49 76 0.0 1.0 0.00 0.00 0.00 86 1021.2
20260508233059 49 76 0.0 2.0 0.00 0.00 0.00 85 1021.0
20260508231556 49 76 1.0 2.0 0.00 0.00 0.00 84 1021.1
20260508230055 49 76 0.0 1.0 0.00 0.00 0.00 85 1021.1
20260508224631 50 76 0.0 0.0 0.00 0.00 0.00 84 1021.2
20260508223155 50 76 0.0 0.0 0.00 0.00 0.00 85 1021.2
20260508221551 50 76 0.0 1.0 0.00 0.00 0.00 85 1021.2
20260508220054 50 76 0.0 0.0 0.00 0.00 0.00 85 1021.2
20260508214551 50 76 0.0 0.0 0.00 0.00 0.00 84 1021.2
20260508213049 51 76 0.0 0.0 0.00 0.00 0.00 83 1021.3
20260508211552 51 76 0.0 0.0 0.00 0.00 0.00 82 1021.2
20260508210048 51 76 0.0 0.0 0.00 0.00 0.00 80 1021.2
20260508204547 52 76 0.0 0.0 0.00 0.00 0.00 79 1021.2
20260508203046 52 76 0.0 1.0 0.00 0.00 0.00 78 1021.1
20260508201543 52 76 0.0 0.0 0.00 0.00 0.00 77 1021.1
20260508200043 53 76 0.0 0.0 0.00 0.00 0.00 75 1021.0
20260508194542 53 76 0.0 2.0 0.00 0.00 0.00 73 1020.9
20260508193041 53 76 1.0 3.0 0.00 0.00 0.00 72 1020.9
20260508191544 53 69 1.0 5.0 0.00 0.00 0.00 71 1020.8
20260508190038 54 90 1.0 3.0 0.00 0.00 0.00 71 1020.7
20260508184537 54 76 0.0 3.0 0.00 0.00 0.00 70 1020.6
20260508183038 54 81 0.0 3.0 0.00 0.00 0.00 68 1020.5
20260508181535 54 59 1.0 3.0 0.00 0.00 0.00 67 1020.3
20260508180038 55 59 2.0 4.0 0.00 0.00 0.00 66 1020.2
20260508174535 55 65 2.0 4.0 0.00 0.00 0.00 66 1020.2
20260508173034 55 63 0.0 3.0 0.00 0.00 0.00 65 1020.1
20260508171533 55 76 1.0 5.0 0.00 0.00 0.00 65 1020.0
20260508170032 56 58 2.0 4.0 0.00 0.00 0.00 63 1019.8
20260508164533 56 96 0.0 3.0 0.00 0.01 0.00 65 1019.8
20260508163035 56 76 0.0 3.0 0.00 0.01 0.00 66 1019.8
20260508160043 56 49 1.0 4.0 0.00 0.01 0.00 63 1019.9
20260508154600 56 47 1.0 3.0 0.00 0.01 0.00 65 1019.8
20260508153044 56 76 2.0 6.0 0.00 0.01 0.00 63 1019.8
20260508151541 56 360 0.0 8.0 0.00 0.01 0.00 64 1019.8
20260508150054 56 30 0.0 5.0 0.00 0.01 0.00 62 1019.9
20260508144538 57 46 2.0 6.0 0.00 0.01 0.00 60 1019.8
20260508143053 57 104 1.0 4.0 0.00 0.01 0.00 59 1019.9
20260508141538 57 72 1.0 4.0 0.00 0.01 0.00 61 1019.9
20260508140041 57 58 3.0 6.0 0.00 0.01 0.00 61 1019.9
20260508134534 56 300 1.0 4.0 0.00 0.01 0.00 64 1020.0
20260508133031 56 300 0.0 3.0 0.00 0.01 0.00 64 1020.1
20260508131529 56 326 1.0 4.0 0.00 0.01 0.00 67 1020.3
20260508130027 55 5 1.0 7.0 0.00 0.01 0.00 67 1020.4
20260508124527 56 346 0.0 6.0 0.00 0.01 0.00 67 1020.5
20260508123025 56 17 3.0 8.0 0.00 0.01 0.00 66 1020.6
20260508121522 55 35 0.0 3.0 0.00 0.01 0.00 67 1020.5
20260508120019 55 93 0.0 2.0 0.00 0.01 0.00 71 1020.6
20260508114517 54 325 0.0 6.0 0.00 0.01 0.00 72 1020.6
20260508113018 53 34 2.0 5.0 0.00 0.01 0.00 70 1020.7
20260508111516 54 32 1.0 6.0 0.00 0.01 0.00 71 1020.7
20260508110016 54 67 3.0 6.0 0.00 0.01 0.00 68 1020.8
20260508104512 55 76 1.0 6.0 0.00 0.01 0.00 70 1020.7
20260508103009 54 19 1.0 5.0 0.00 0.01 0.00 72 1020.7
20260508101507 54 76 2.0 9.0 0.00 0.01 0.00 72 1020.7
20260508100006 53 69 4.0 6.0 0.00 0.01 0.00 71 1020.7
20260508094505 53 62 3.0 6.0 0.00 0.01 0.00 72 1020.7
20260508093004 53 61 2.0 5.0 0.00 0.01 0.00 72 1020.7
20260508091504 53 29 0.0 4.0 0.00 0.01 0.00 68 1020.6
20260508090159 53 90 2.0 5.0 0.00 0.01 0.00 70 1020.6
20260508084602 52 94 2.0 4.0 0.00 0.01 0.00 73 1020.5
20260508083058 52 39 2.0 5.0 0.00 0.01 0.00 75 1020.5
20260508081550 52 113 2.0 5.0 0.00 0.01 0.00 77 1020.5
20260508080058 51 76 3.0 6.0 0.00 0.01 0.00 79 1020.4
20260508074539 51 76 2.0 8.0 0.00 0.01 0.00 78 1020.3
20260508073040 51 61 3.0 8.0 0.00 0.01 0.00 79 1020.3